Location: Bear Valley
(38.4650°N, 120.0390°W)
Time: 16:43:18
(UTC-07:00)

N. Korean satellite - Visible Passes

Search period start: 24 March 2019 00:00
Search period end: 03 April 2019 00:00
Orbit: 456 x 510 km, 97.2° (Epoch: 24 March)

Date Brightness Start Highest point End Pass type
(mag) Time Alt. Az. Time Alt. Az. Time Alt. Az.
24 Mar 9.8 06:19:00 10° NE 06:21:24 17° E 06:23:50 10° SE visible
28 Mar 9.9 06:13:23 10° ENE 06:15:29 15° E 06:17:36 10° SE visible
01 Apr 10.1 06:07:51 10° ENE 06:09:32 13° E 06:11:13 10° ESE visible
